Погода в Армавире

Поиск расширенной информации на нашем сайте:

Полезная информация:

Новости сайта



02.01.2020
Опубликован Долгосрочный прогноз погоды по городам России и ближнего зарубежья на январь 2020 года.
Карты: Прогноз на январь и февраль 2020 года, Сравнение прогнозируемой аномалии приземной температуры воздуха на январь 2020 года по разным моделям.




Погода в Армавире - сегодня

Время (UTC), дата Ветер
(°,м/с) 
Видим.   Явления Облачность Т
(°С)
Тd
(°С)
f(%) Тe
(°С)
Pmin
(гПа)
dP
(гПа)
Po
(мм)
O2
(г/м3)
Тmin Tmax R s Состояние
почвы
18 28.11.20 130 (ЮВ) 10 км    ясно 
+2.5 -2.9 67 +2  1023.8  0.2  753  301           
21 28.11.20 140 (ЮВ) 10 км    ясно 
+2.1 -4.6 61 +1  1023.6  0.1  753  302           
00 29.11.20 130 (ЮВ) 10 км    ясно 
+0.6 -1.2 88 1024.1  0.3  753  303           
03 29.11.20 130 (ЮВ) 10 км    ясно 
+0.9 -0.9 88 1024  0.1  753  303  +0.5         
06 29.11.20 120 (ЮВ) 10 км    ясно 
+2.6 -0.3 81 +1  1024.5  0.6  753  301           
09 29.11.20 120 (ЮВ) 10 км    ясно 
+7.6 +0.2 59 +9  1023.8  -0.3  753  295           
12 29.11.20 050 (СВ) 10 км    ясно 
+10 +1 54 +10  1023.3  -0.4  753  293           
15 29.11.20 120 (ЮВ) 10 км    ясно 
+4.7 +0.8 76 +6  1024.5  0.8  754  298    +10.6       
18 29.11.20 080 (В) 10 км    ясно 
+1.2 -0.3 90 +2  1024.9  0.2  754  302           
21 29.11.20 130 (ЮВ) 10 км    10/10 600 м 
[Sc]
+0.4 -0.6 93 -1  1024.5  -0.5  753  303           
00 30.11.20 130 (ЮВ) 10 км    10/10 600 м 
[Sc]
+0.5 -0.8 91 1024.4  0.1  753  303           
03 30.11.20 130 (ЮВ) 10 км    ясно 
+0.2 -1.3 90 -1  1024  -0.5  753  303  -1.9         
06 30.11.20 120 (ЮВ) 10 км    1/1 300 м 
[St]
+2.5 +0 84 1024.4  0.6  753  301           
09 30.11.20 110 (В) 6-11{14}  10 км    3/3 300 м 
[Cu hum]
+8.2 +2.7 68 +6  1022.3  -1.6  752  294           
12 30.11.20 110 (В) 7-11  10 км    6/6 300 м 
[Cu med, cong]
+8.1 +2.7 69 +6  1021.7  -0.5  752  294        598  мокрый или
старый снег
50-90% 
15 30.11.20 100 (В) 5-11  10 км    8/8 300 м 
[Sc]
+6.6 +2.2 73 +5  1022.2  0.3  752  296    +9       
18 30.11.20 110 (В) 7-14{17}  10 км    6/6 300 м 
[Sc]
+6.4 +1.7 72 +4  1021.3  -0.9  751  296           
21 30.11.20 120 (ЮВ) 7-14{15}  10 км    8/8 300 м 
[Sc]
+5.5 +1.3 74 +3  1021.3  0.1  751  297           
00 01.12.20 110 (В) 7-16{17}  10 км    9/9 300 м 
[Sc]
+4.4 +0.3 75 +1  1021  -0.3  751  298           
03 01.12.20 110 (В) 10 км    10/10 300 м 
[Sc]
+3.2 -0.3 78 +1  1021.7  0.6  751  299  +3.2         
06 01.12.20 100 (В) 6-11{12}  10 км    10/10 300 м 
[St]
+3.1 -0.5 77 1022.2  0.5  752  300  +2.8         
09 01.12.20 110 (В) 6-11{14}  10 км    9/9 300 м 
[Sc]
+4 -0.6 72 +1  1021.8  -0.3  752  299           
12 01.12.20 110 (В) 4{14}  10 км    4/4 300 м 
[Sc]
+4.2 -0 74 +2  1021.7  -0.1  752  298           
15 01.12.20 110 (В) 6-11  10 км    9/9 300 м 
[Sc]
+2.9 -0.3 79 1022.6  0.7  752  300    +4.9       
18 01.12.20 110 (В) 5-10{14}  10 км    5/5 300 м 
[Sc]
+2.8 -0.2 81 1023  0.4  752  300           
Время (UTC), дата Ветер
(°,м/с) 
Видим.   Явления Облачность Т
(°С)
Тd
(°С)
f(%) Тe
(°С)
Pmin
(гПа)
dP
(гПа)
Po
(мм)
O2
(г/м3)
Тmin Tmax R s Состояние
почвы

Для получения пояснительной информации подведите курсор к названию столбца.

ПОГОДА в Армавире - архив

Всё, что Вы хотите узнать о погоде в Армавире - удобно и подробно!

Выберите нужную дату (начиная с 1 января 2019* года) и нажмите кнопку "Найти".
Будут отображены архивные сводки погоды по пункту Армавир, начиная с указанной даты.


Отображать данные в формате CSV (для использования в таблицах Excel)


Внимание! Наш архив погоды предназначен исключительно для личного некоммерческого использования в познавательных целях. Если Вам необходимы официальные справки о состоянии погоды (для производственных, юридических, коммерческих и т.п. целей), обращайтесь в органы Росгидромета.

*Примечание: данная дата относится к архиву по метеостанциям СССР (Россия, СНГ, Балтия).
Архив по метеостанциям Зарубежной Европы и Азии (кроме Китая) хранится 10 дней, по другим регионам земного шара (Китай, Африка, Америка, Австралия, Океания) - 1 день.

Армавир - район местоположения метеостанции


Название, широта, долгота, высота метеостанции:
Армавир 45°ш. 41.1°д. 159 м над ур. моря [Российская Федерация]

Дополнительная информация

В oтличие oт бoльшинства пoгoдных сайтoв мы публикуем пoдрoбную метеoинфoрмацию в детальнoм прoфессиoнальнoм фoрмате.

Характеристики температуры и влажнoсти вoздуха измеряются на высoте 2 м в тени вдали oт зданий и деревьев.
Скoрoсть ветра измеряется на высoте 10 м (на урoвне рoста челoвека скoрoсть ветра ниже в 1.5-2 раза). Если метеoстанция нахoдится в гoрoде или в лесу, тo скoрoсть ветра занижена на 2-4 м/с пo сравнению с oткрытым местoм. Скoрoсть ветра над акватoриями крупных рек и oзёр, а также на вершинах хoлмoв на 2-5 м/с выше, чем в oбычных услoвиях.
Атмoсфернoе давление в разных тoчках местнoсти мoжет значительнo oтличаться oт давления на метеoстанции, в зависимoсти oт услoвий рельефа (при пoдъёме на 10 м давление пoнижается примернo на 1 мм рт.ст.).